Tracking 30074 objects as of 14-Jan-2025
HD Live streaming from Space Station
objects crossing your sky now

STARLINK-5880

Track STARLINK-5880 now!
10-day predictions
STARLINK-5880 is classified as:


NORAD ID: 57220
Int'l Code: 2023-094C
Perigee: 565.3 km
Apogee: 567.1 km
Inclination: 43.0 °
Period: 95.8 minutes
Semi major axis: 6937 km
RCS: Unknown
Launch date: July 7, 2023
Source: United States (US)
Launch site: AIR FORCE WESTERN TEST RANGE (AFWTR)
Your satellite tracking list
Your tracking list is empty




NASA's NSSDC Master Catalog

Two Line Element Set (TLE):
1 57220U 23094C   25013.78557876  .00000182  00000-0  28522-4 0  9992
2 57220  43.0031 152.1305 0001298 264.6091  95.4603 15.02536351 83957
Source of the keplerian elements: AFSPC